Regional Weather Roundup
Issued by NWS

Home | Current Version | Previous Version | Text Only | Print | Product List | Glossary Off
Versions: 1 2 3 4 5 6 7 8 9 10 11 12 13 14 15 16 17 18 19 20 21 22 23 24 25 26 27 28 29 30 31 32 33 34 35 36 37 38 39 40 41 42 43 44 45 46 47 48 49 50

000
ASUS43 KBIS 162020
RWRND

NORTH DAKOTA REGIONAL WEATHER ROUNDUP
NATIONAL WEATHER SERVICE BISMARCK ND
300 PM CDT WED APR 16 2014

NOTE: "FAIR" INDICATES FEW OR NO CLOUDS BELOW 12,000 FEET WITH NO
SIGNIFICANT WEATHER AND/OR OBSTRUCTIONS TO VISIBILITY.


NDZ001>003-009>011-017-162100-
NORTHWEST NORTH DAKOTA

CITY           SKY/WX    TMP DP  RH WIND       PRES   REMARKS
WILLISTON      CLOUDY    28  22  78 E14       30.18R WCI  17
MINOT          CLOUDY    32  17  54 NE10      30.19R
MINOT AFB      MOSUNNY   31  19  60 E12       30.20R
$$

NDZ018>021-031>035-040>046-162100-
SOUTHWEST NORTH DAKOTA

CITY           SKY/WX    TMP DP  RH WIND       PRES   REMARKS
BISMARCK       CLOUDY    33  20  58 NE15      30.14R
DICKINSON      CLOUDY    29  21  72 NE9       30.09R
GARRISON         N/A     28  19  69 E12       30.16R WCI  18
HETTINGER ARPT CLOUDY    31  22  69 NE13      30.08R
$$

NDZ004>008-012>016-024-026-027-054-162100-
NORTHEAST NORTH DAKOTA

CITY           SKY/WX    TMP DP  RH WIND       PRES   REMARKS
GRAND FORKS    MOSUNNY   41  10  28 NE18G26   30.11R
GRND FRKS AFB  SUNNY     41   7  25 E16G28    30.16R
DEVILS LAKE    SUNNY     36  10  35 NE17G26   30.17R
$$

NDZ022-023-025-028>030-036>039-047>053-162100-
SOUTHEAST NORTH DAKOTA

CITY           SKY/WX    TMP DP  RH WIND       PRES   REMARKS
FARGO          CLOUDY    35  24  64 NE16      30.09R
JAMESTOWN      CLOUDY    35  19  52 NE17      30.09R
$$




USA.gov is the U.S. government's official web portal to all federal, state and local government web resources and services.